CAPE
680 36 358 228 66 45 126 269 227 85 77 75 33 98 87 99 31 11 145 144 424 1131 1372 1513 2090 1968 1905 2314 2687 2591 2404 2267 2492 2180 2160 2091 2134 2501 2386 2055 1999 2060 2142 2531 2208 1508 2097 2019 2446
93 105 63 63 22 4 114 307 240 169 146 70 76 107 67 116 192 179 167 294 755 1126 1254 1390 2185 2270 1880 2107 2326 2647 2253 2192 2125 2046 1908 1784 1671 1625 1607 1915 2286 2027 1791 2184 2296 2535 1738 2451 2647
36 176 40 3 20 15 110 385 180 179 115 112 97 90 34 79 113 70 257 410 738 1126 1181 1382 2172 2258 1735 1856 1939 2080 2157 1987 1954 1924 1849 1759 1666 1542 1365 1419 1505 1771 2482 1828 1658 1943 2296 2068 2351
214 35 124 13 0 45 221 279 222 198 182 159 70 11 5 108 27 216 331 419 863 1194 1231 1791 2052 1711 1621 1722 1757 1778 1836 1815 1808 1785 1729 1513 1288 1315 1454 1682 1723 1496 1483 2126 2428 1769 1659 1734 1966
262 137 78 30 27 147 225 269 458 280 167 127 97 59 4 38 114 399 472 358 1023 1090 1309 1449 2454 2195 1725 1771 1872 1767 1708 1704 1754 1714 1423 1435 1788 1874 2003 1980 1934 1746 1758 1754 1801 2450 2358 1885 1540
93 72 41 40 122 172 269 398 418 288 305 158 83 52 21 54 105 507 411 437 1061 975 1447 1454 1925 1979 1863 1859 1774 1901 1956 1845 1825 1592 1622 1964 1643 1367 1361 1442 1539 1475 1704 1679 1499 1746 1899 1871 2298
114 146 185 186 283 441 365 492 384 242 232 221 112 131 66 67 110 186 338 578 1018 1104 1365 1436 1496 1600 1856 1888 2127 2007 1960 1912 1830 1983 1913 1648 1501 1683 1374 1183 1238 1532 1571 1592 1554 1599 1693 1721 1829
76 86 273 427 692 715 646 592 350 270 478 194 100 77 59 82 54 175 704 782 878 1173 1342 1343 1449 1342 2013 2317 2140 2147 2037 1914 1952 1742 1551 1472 1654 1833 910 550 1112 1447 1366 1620 1452 1518 1491 1599 1870
152 36 97 393 476 763 711 657 295 617 280 205 339 93 72 213 481 569 761 949 1111 1215 1291 1264 1478 1456 2135 1869 1856 2369 2128 1996 1798 1714 1961 1118 327 264 156 93 284 911 1166 1507 1545 1646 1443 1395 1645
26 138 36 107 177 778 768 814 805 498 304 243 482 509 659 644 553 645 722 769 899 1124 1373 1275 1397 1713 1750 1579 1647 1722 1629 1418 1236 926 929 225 118 35 0 20 164 1029 1268 1442 1343 1258 1149 1268 1252
1 89 110 171 355 836 905 919 785 444 338 248 526 714 710 621 562 617 743 792 688 917 1155 1257 1256 1555 1487 1480 1522 1412 1331 1173 654 127 19 11 14 2 6 0 0 112 1110 945 596 969 1211 1125 1095
58 133 208 339 851 875 936 719 873 510 461 386 498 586 659 689 574 592 656 586 590 793 1030 1203 1278 1429 1320 1326 1281 1290 1159 288 62 22 17 0 0 0 15 15 0 27 182 177 237 301 598 928 1183
86 197 403 306 454 605 757 945 1005 768 457 437 624 537 541 529 562 609 592 500 474 574 717 866 1061 1071 1188 1120 1266 1167 533 88 45 11 8 3 1 0 0 46 55 40 59 37 137 271 360 501 689
56 268 286 290 1041 694 1203 1098 996 623 359 452 500 504 497 488 531 583 610 525 403 432 560 571 803 958 909 914 1088 986 459 18 9 0 0 0 0 0 23 104 126 21 92 87 93 150 296 414 406
290 317 374 601 1175 1190 1124 1045 789 624 379 440 390 380 426 489 476 532 590 486 338 280 484 627 703 891 877 817 642 703 126 18 12 0 0 0 0 0 25 188 329 123 130 98 145 172 220 368 453
394 339 373 636 931 1109 546 911 952 602 359 398 402 374 389 446 471 459 397 352 344 272 281 499 736 783 808 799 478 221 152 29 5 10 0 4 40 55 116 269 231 179 157 199 271 258 345 424 461
298 363 347 495 610 766 340 710 922 743 490 369 272 363 363 442 468 409 407 396 396 361 347 440 640 653 697 702 493 328 188 0 19 77 101 81 136 392 253 286 305 362 486 261 281 335 391 475 506
0 160 216 439 451 385 354 494 902 819 652 437 344 289 245 341 382 410 393 449 427 354 323 394 543 587 529 556 493 356 212 27 31 61 218 211 185 181 266 201 401 454 393 123 141 329 282 292 364
0 0 10 128 297 206 319 401 892 875 705 448 343 214 199 210 243 272 311 391 424 294 277 379 555 656 502 500 461 463 331 297 274 159 174 307 293 354 459 434 257 396 392 40 102 267 174 51 225
2 0 14 18 94 196 413 448 707 890 771 507 440 338 246 198 231 298 286 263 330 284 355 360 395 582 659 578 588 703 619 563 410 291 309 455 614 551 462 408 478 508 216 192 230 364 207 128 197
3 9 2 4 153 187 487 572 502 526 594 470 461 466 455 416 297 371 326 360 248 430 421 496 431 392 596 721 827 794 751 662 688 482 513 381 519 583 799 791 653 466 301 252 361 443 369 135 102
28 4 0 3 105 100 405 390 611 520 573 481 466 369 369 357 278 327 361 528 423 425 555 553 594 479 641 840 913 919 678 709 691 706 606 290 415 551 679 467 515 616 511 504 462 454 393 299 308
30 7 1 0 0 0 209 94 164 622 601 586 524 385 370 378 408 365 400 568 566 525 554 558 660 686 697 893 973 923 678 719 959 539 589 589 510 693 382 7 76 279 401 323 703 735 745 490 336
1 1 0 0 0 0 15 6 0 534 536 590 550 530 406 409 463 526 523 707 746 708 711 751 844 943 869 902 1056 1006 995 1080 1092 827 846 969 972 550 300 99 2 49 197 316 378 287 709 736 257
0 0 0 0 0 0 20 17 27 116 287 392 565 555 457 266 614 735 726 793 901 912 972 1062 1035 1080 1086 1138 1135 1128 1300 1397 1314 1117 1256 880 654 829 704 470 164 39 18 170 511 390 188 455 255
0 0 0 0 0 2 44 36 98 106 136 229 500 597 553 457 586 725 461 720 899 975 1083 1320 1435 1369 1234 1294 1369 1460 1601 1796 1563 1328 1312 1042 1075 974 879 686 500 331 0 247 462 656 762 593 428
1 3 5 2 1 0 21 55 57 143 135 363 431 452 618 407 171 356 98 228 581 666 1311 1426 1486 1657 1648 1540 1482 1587 1806 1961 1722 1667 1377 1468 1510 1392 1267 909 760 759 859 649 407 284 420 667 790
1 4 2 0 0 0 94 97 36 116 148 306 520 554 654 451 266 123 75 39 177 150 770 1412 1770 1718 1860 1942 1820 1805 2023 1968 640 1275 1787 1776 1592 1498 1032 1006 1171 1236 1363 1356 1249 1251 1065 974 1019
1 0 0 1 0 0 4 21 91 28 174 294 522 699 673 522 227 173 122 160 792 1053 1263 628 808 1323 392 586 1445 1983 1677 1534 1167 1538 1728 1846 1593 1228 1366 1349 1217 1423 1510 1232 1515 1477 1383 1248 1155
13 2 1 0 0 2 0 69 309 107 197 243 310 312 528 378 274 243 223 247 534 1139 1085 960 586 240 101 3 227 553 1030 1284 1465 1566 1701 1833 1248 1507 1905 1124 517 84 3 290 485 466 388 365 306
CIN
-377 -514 -356 -409 -38 -67 -115 -54 -38 -64 -57 -23 -20 -29 -6 -160 -140 -156 -187 -146 -68 0 0 -1 0 0 0 0 0 0 0 0 0 0 -1 -1 0 0 0 0 0 0 0 0 0 -1 0 0 0
-342 -257 -413 -19 -120 -101 -55 -82 -16 -39 -49 -32 -27 -94 -22 -212 -274 -276 -194 -117 -36 0 0 -2 0 0 0 0 0 0 0 0 0 -1 -2 -6 -10 -11 -8 -2 0 0 0 0 0 0 0 0 0
-464 -428 -80 -70 -66 -91 -37 -44 -79 -55 -70 -67 -83 -99 -38 -222 -238 -270 -211 -86 -21 0 -1 -3 0 0 0 0 0 0 0 0 -2 0 0 0 -3 -13 -16 -8 -7 -1 0 0 -1 0 0 0 0
-407 -501 -404 -163 0 -52 -43 -118 -62 -44 -48 -92 -52 -49 -118 -215 -254 -235 -157 -109 -22 -1 -1 0 0 0 0 0 -1 -3 -3 -4 -1 0 0 -1 -5 -4 -6 0 0 -1 0 0 0 -4 -3 0 0
-348 -374 -292 -309 -286 -33 -32 -52 -74 -41 -94 -113 -100 -120 -133 -183 -126 -142 -102 -111 -27 -7 -2 -1 0 0 0 0 0 -1 -5 -4 0 0 -2 -8 -1 0 0 0 0 0 0 0 0 0 0 -2 -10
-117 -110 -185 -127 -42 -41 -113 -80 -85 -31 -90 -169 -128 -117 -107 -198 -149 -110 -130 -102 -28 -42 -2 -2 0 0 0 0 0 0 0 0 0 0 0 0 0 -6 -5 -3 -1 0 0 0 0 -1 0 -1 0
-40 -43 -46 -31 -93 -93 -66 -92 -53 -81 -107 -101 -142 -146 -66 -150 -162 -154 -126 -79 -33 -27 -10 -2 -1 -1 0 0 0 0 0 0 0 0 0 0 -2 0 -3 -12 -10 0 0 0 0 0 0 -2 -2
-44 -108 -36 -38 -45 -32 -53 -64 -106 -57 -60 -71 -192 -159 -110 -109 -49 -120 -53 -46 -38 -17 -16 -12 -2 -2 -2 0 0 0 0 0 0 0 0 -5 -2 0 -28 -62 -24 -2 -5 0 -1 0 -2 0 -4
-143 -35 -88 -31 -32 -54 -92 -87 -108 -54 -51 -67 -47 -87 -122 -89 -71 -62 -29 -13 -8 -2 -5 -9 -1 -10 -1 -1 -2 -1 0 0 0 0 0 -15 -52 -67 -81 -121 -87 -18 -11 0 0 0 0 -3 0
-71 -41 -60 -22 -45 -83 -75 -76 -99 -68 -88 -87 -105 -95 -94 -103 -96 -93 -65 -64 -38 -18 -4 -3 -3 -3 -1 -5 -1 -2 -1 -2 -17 -14 -13 -55 -60 -83 -1 -225 -129 -23 -9 0 -1 0 0 -1 -10
-13 -37 -13 -24 -96 -106 -114 -62 -55 -58 -53 -46 -157 -96 -79 -84 -77 -71 -85 -107 -150 -82 -26 -11 -17 -7 -14 -7 -3 -3 -7 -9 -30 -69 -100 -9 -57 -131 -164 0 0 -121 -16 -9 -30 -7 -1 -2 -16
-17 -23 -43 -72 -119 -122 -135 -111 -49 -9 -36 -12 -156 -169 -116 -70 -90 -97 -89 -127 -126 -92 -48 -26 -25 -19 -22 -18 -19 -23 -19 -62 -69 -19 -11 0 0 0 -185 -149 0 -147 -57 -58 -78 -68 -46 -25 -12
-25 -44 -88 -70 -89 -103 -124 -108 -53 -21 -2 -72 -110 -130 -99 -106 -109 -89 -135 -166 -163 -134 -100 -80 -52 -47 -35 -27 -18 -23 -46 -63 -5 -11 -17 -40 -16 0 -173 -128 -66 -78 -62 -104 -95 -61 -60 -52 -46
-19 -46 -25 -47 -74 -129 -119 -98 -38 -32 -64 -64 -84 -82 -94 -99 -116 -109 -131 -116 -180 -181 -152 -142 -82 -59 -69 -61 -37 -38 -55 -39 -49 0 0 -21 0 0 -213 -81 -68 -92 -25 -47 -64 -40 -31 -39 -48
-77 -72 -109 -68 -83 -146 -98 -120 -96 -69 -62 -69 -57 -52 -63 -64 -98 -133 -136 -123 -35 -187 -152 -132 -116 -83 -80 -69 -73 -66 -128 -89 -49 0 0 0 0 0 -188 -55 -61 -83 -52 -111 -103 -75 -29 -64 -43
-51 -64 -68 -72 -95 -123 -134 -119 -139 -137 -101 -56 -51 -40 -64 -50 -109 -102 -115 -112 -48 -46 -150 -139 -123 -111 -86 -70 -87 -66 -42 -100 -80 -103 -2 -21 -114 -50 -62 -71 -69 -59 -100 -74 -96 -56 -6 -23 -37
-45 -36 -35 -76 -85 -92 -74 -110 -129 -120 -82 -82 -103 -96 -90 -74 -67 -73 -111 -60 -53 -85 -93 -167 -142 -131 -91 -68 -53 -41 -43 0 -60 -43 -83 -129 -77 -69 -95 -75 -67 -105 -51 -71 -78 -65 -44 -31 -28
0 -43 -37 -67 -93 -79 -82 -107 -163 -174 -135 -116 -94 -105 -138 -97 -74 -63 -104 -86 -59 -76 -87 -196 -153 -132 -98 -68 -51 -51 -58 -193 -52 -38 -29 -64 -74 -109 -93 -61 -60 -41 -40 -89 -84 -68 -61 -34 -44
0 0 -14 -72 -73 -108 -155 -102 -185 -178 -167 -107 -133 -105 -127 -106 -81 -75 -78 -94 -75 -67 -23 -189 -161 -137 -111 -78 -98 -96 -63 -102 -77 -22 -42 -74 -77 -84 -68 -58 -38 -34 -37 -49 -80 -42 -48 -147 -116
-9 0 -3 -6 -207 -94 -140 -104 -132 -151 -152 -135 -106 -134 -99 -132 -152 -71 -53 -73 -94 -40 -22 -27 -52 -131 -106 -125 -109 -85 -77 -68 -67 -34 -40 -30 -48 -38 -44 -65 -58 -64 -50 -34 -55 -39 -99 -166 -103
-33 -3 -12 -8 -185 -108 -128 -91 -120 -130 -131 -115 -123 -106 -111 -108 -126 -119 -83 -20 -42 -4 -30 -27 -37 -156 -166 -133 -86 -55 -60 -59 -38 -57 -56 -80 -56 -69 -63 -55 -42 -35 -60 -71 -31 -45 -30 -51 -145
-22 -19 0 -79 -90 -67 -79 -56 -84 -119 -83 -115 -111 -127 -95 -108 -88 -141 -75 -18 -30 -24 -17 -41 -6 -153 -180 -128 -97 -86 -86 -54 -50 -21 -48 -97 -66 -102 -52 -35 -60 -51 -62 -74 -54 -44 -33 -48 -58
-24 -15 -11 0 0 0 -94 -27 -61 -105 -100 -108 -125 -106 -118 -155 -207 -86 -52 -45 -50 -47 -31 -75 -15 -20 -183 -133 -92 -91 -78 -79 -36 -75 -80 -59 -79 -34 -42 -62 -111 -126 -65 -94 -35 -35 -26 -44 -60
-3 -7 0 0 0 0 -2 -11 0 -112 -125 -109 -101 -57 -61 -148 -145 -205 -104 -59 -63 -86 -183 -93 -44 -34 -46 -180 -130 -123 -61 -49 -40 -43 -91 -56 -49 -42 -9 -25 -31 -245 -85 -66 -59 -125 -57 -33 -94
0 0 0 0 0 -1 -57 -80 -18 -184 -123 -177 -71 -48 -49 -231 -162 -144 -100 -91 -82 -60 -210 -210 -233 -40 -59 -67 -84 -64 -43 -23 -26 -35 -31 -49 -44 -46 -30 -20 -82 -281 -128 -151 -90 -86 -155 -104 -119
-13 0 0 0 0 -5 -119 -73 -79 -125 -175 -280 -76 -35 -43 -61 -102 -98 -122 -114 -139 -99 -275 -249 -244 -231 -43 -65 -72 -140 -102 -36 -35 -48 -50 -62 -58 -52 -34 -38 -53 -103 -2 -122 -90 -61 -41 -44 -89
-3 -6 -13 -16 -16 0 -117 -55 -79 -108 -82 -249 -158 -98 -58 -79 -123 -141 -481 -92 -51 -74 -217 -239 -229 -220 -189 -147 -67 -133 -87 -40 -44 -25 -40 -53 -36 -24 -35 -31 -52 -58 -50 -67 -81 -50 -58 -24 -29
-6 -7 -6 -2 0 0 -46 -110 -52 -135 -60 -221 -125 -102 -57 -44 -243 -44 -326 -420 -457 -348 -138 -155 -125 -132 -132 -126 -161 -140 -67 -71 -272 -151 -32 -24 -25 -34 -50 -46 -28 -17 -10 -5 -3 -4 -6 -6 -13
-8 0 0 -3 0 0 -20 -27 -149 -154 -338 -189 -115 -93 -84 -56 -41 -205 -61 -232 -265 -177 -78 -167 -119 -48 -15 -16 -13 -79 -53 -90 -62 -29 -40 -12 -21 -21 -18 -16 -24 -18 -15 -27 -17 -10 -9 -11 -11
-19 -16 -9 0 0 -29 0 -44 -161 -156 -364 -308 -329 -394 -557 -508 -494 -479 -164 -384 -237 -86 -147 -50 -111 -46 -6 -1 -33 -3 -4 -35 -39 -40 -13 -6 -22 -12 -2 -26 -91 -155 -9 -92 -46 -51 -49 -38 -33
Wind_Speed
7 nan 7 12 nan nan 3 5 12 nan nan nan nan nan nan nan nan nan 4 3 10 4 5 7 11 12 12 12 12 14 15 17 17 17 17 18 17 16 16 15 15 13 13 12 12 9 5 4 5
nan 8 nan nan nan nan 7 5 8 13 11 nan nan 4 nan 1 4 6 4 10 12 6 4 5 12 11 13 12 13 14 15 14 16 16 15 16 15 15 15 13 12 11 12 12 9 9 10 5 6
nan 3 nan nan nan nan 11 5 8 11 13 3 nan nan nan nan 6 nan 10 12 11 7 4 6 12 10 12 12 12 12 13 13 14 15 14 14 13 14 13 11 10 7 9 12 10 8 7 8 7
7 nan 7 nan nan nan 7 7 10 12 3 7 nan nan nan 5 nan 4 13 13 8 5 3 9 13 12 11 11 11 11 12 12 13 14 14 13 13 12 12 10 10 9 7 8 11 9 6 6 7
7 12 nan nan nan 7 10 8 10 10 1 7 nan nan nan nan 13 15 10 7 7 3 2 5 10 10 10 10 11 12 13 13 14 13 13 13 12 10 10 9 9 10 9 8 7 7 9 8 8
nan nan nan nan 4 6 3 10 3 4 1 3 nan nan nan nan 15 12 9 5 5 6 2 1 9 10 10 10 11 12 13 13 14 13 12 12 11 10 9 9 9 9 11 11 10 9 8 7 7
5 5 8 15 10 3 1 5 4 7 3 8 3 1 nan nan 11 13 9 6 5 4 3 2 3 9 12 12 12 13 12 12 11 10 10 11 9 10 6 7 8 9 10 12 12 10 10 11 8
nan nan 8 16 10 3 4 6 11 8 10 6 6 nan nan nan nan 9 8 6 6 6 5 6 4 5 4 5 10 12 12 13 11 10 8 8 7 8 6 4 6 9 9 10 11 9 8 8 8
12 nan nan 17 12 8 12 5 8 4 5 10 10 nan nan 12 12 10 7 5 9 5 6 6 5 6 6 3 9 14 16 11 12 13 12 11 7 9 5 nan 3 6 9 10 11 9 7 6 6
nan 11 nan 16 16 13 16 13 15 4 7 3 6 10 12 16 15 14 14 15 13 11 8 6 5 7 5 5 8 13 11 9 11 13 16 9 6 nan nan nan 3 7 8 8 8 9 8 6 5
nan nan 15 11 14 19 20 16 13 16 10 16 16 13 11 12 11 13 14 16 20 14 11 10 8 6 10 9 10 13 13 11 8 7 nan nan nan nan nan nan nan 2 3 3 3 4 4 6 5
nan 15 16 12 12 13 22 19 10 15 10 18 20 20 14 13 12 13 13 14 12 14 14 12 9 9 10 10 11 9 7 9 nan nan nan nan nan nan nan nan nan nan 4 3 5 3 5 4 4
nan 15 18 14 7 14 22 22 17 11 12 17 19 19 15 12 16 10 11 11 12 13 13 15 14 7 8 13 8 6 11 nan nan nan nan nan nan nan nan nan nan nan nan nan 4 3 3 3 2
nan 12 15 11 7 13 20 24 10 10 17 18 20 20 17 16 13 7 9 13 14 13 14 12 14 12 10 16 6 10 10 nan nan nan nan nan nan nan nan 2 2 nan nan nan nan 2 2 3 3
6 4 4 10 8 7 8 12 24 22 28 25 23 20 17 15 12 17 16 14 15 10 13 15 15 13 11 17 11 6 11 nan nan nan nan nan nan nan nan 3 3 1 5 nan 5 3 2 3 4
6 8 5 13 16 13 5 20 25 24 27 26 29 26 23 21 23 18 12 13 14 12 14 13 13 14 11 13 14 11 11 nan nan nan nan nan nan nan 4 6 8 9 6 6 6 5 7 3 6
12 13 8 16 22 18 9 16 28 29 28 28 26 29 29 25 18 12 10 10 12 12 14 13 13 14 12 10 8 10 9 nan nan nan 2 nan 2 2 3 4 6 4 3 4 7 8 9 6 5
nan 6 9 17 30 23 16 19 28 34 29 30 29 24 25 24 25 14 12 11 10 10 12 13 11 10 9 4 4 5 6 nan nan nan 2 7 5 3 4 7 6 6 4 4 8 11 15 11 3
nan nan nan 14 15 20 24 20 28 32 33 33 35 27 22 30 23 14 11 11 9 8 11 11 11 8 5 0 2 4 4 2 4 2 3 7 12 10 9 8 8 11 9 nan 9 14 15 nan 8
nan nan nan nan nan 11 16 24 18 25 34 32 33 29 27 19 23 22 15 12 12 12 10 8 8 7 5 2 1 2 0 9 6 6 9 10 10 10 11 8 9 11 14 12 12 12 9 3 5
nan nan nan nan 6 9 18 3 10 9 15 21 23 21 17 21 28 24 19 17 11 12 13 11 11 11 8 6 5 1 8 6 10 9 9 10 15 19 21 27 16 11 12 11 12 14 14 9 6
nan nan nan nan 12 10 15 12 8 13 18 27 24 21 21 16 22 18 17 15 13 13 12 11 7 10 7 8 7 9 6 8 11 9 6 10 17 17 22 28 5 7 9 8 10 12 13 13 9
nan nan nan nan nan nan 13 nan 12 17 20 25 28 22 19 23 29 24 18 19 14 12 12 9 6 5 6 8 7 7 9 12 12 7 10 12 11 18 19 nan nan 8 10 5 11 12 13 17 17
nan nan nan nan nan nan nan nan nan 13 36 30 21 20 17 20 26 24 17 14 16 10 9 8 8 6 7 10 12 12 13 8 5 9 10 10 9 11 15 nan nan nan 13 12 12 8 11 13 15
nan nan nan nan nan nan nan nan nan 15 13 18 16 20 15 19 20 18 27 21 20 17 14 13 9 0 4 9 11 13 6 3 4 7 5 7 7 9 13 15 16 nan nan 17 15 8 9 14 14
nan nan nan nan nan nan nan nan nan 17 10 21 25 24 23 27 28 24 6 23 17 17 15 14 11 4 2 5 6 9 10 4 2 3 3 5 7 7 7 10 11 10 nan 12 9 11 12 13 8
nan nan nan nan nan nan nan nan nan 17 19 23 24 25 30 29 22 28 nan 30 28 33 22 15 10 6 6 2 7 9 14 12 3 1 3 4 8 6 8 10 8 7 8 11 12 11 10 12 10
nan nan nan nan nan nan nan nan nan 16 21 19 21 29 14 11 14 21 nan nan 38 41 38 37 18 20 17 11 12 12 25 9 5 3 8 10 6 9 12 15 13 11 11 11 14 14 12 14 12
nan nan nan nan nan nan nan nan nan nan 25 23 21 18 16 22 22 24 30 32 32 36 43 44 51 65 57 50 25 23 18 11 10 11 12 15 16 16 17 16 16 16 13 17 19 17 15 15 15
nan nan nan nan nan nan nan nan 24 29 24 22 17 19 24 25 26 33 27 31 39 50 60 54 51 55 59 nan 50 50 18 4 19 15 19 21 23 22 23 24 24 nan nan 22 23 23 21 19 18
Wind_Direction
43 nan 2 336 nan nan 121 42 67 nan nan nan nan nan nan nan nan nan 317 330 298 306 324 326 322 328 330 327 324 319 313 309 316 316 319 315 304 298 287 285 288 286 283 284 289 294 293 319 288
nan 34 nan nan nan nan 91 43 15 61 57 nan nan 6 nan 88 161 311 267 313 303 308 340 342 332 321 332 330 332 331 318 308 312 314 321 320 315 309 296 294 299 300 291 275 295 308 314 342 323
nan 336 nan nan nan nan 11 336 27 1 342 337 nan nan nan nan 296 nan 333 313 285 288 326 355 343 334 333 337 333 326 324 317 312 316 321 326 320 317 312 310 312 302 307 304 302 312 322 333 318
38 nan 99 nan nan nan 54 67 47 21 323 264 nan nan nan 337 nan 328 331 317 284 274 285 349 343 346 342 334 329 323 324 326 316 320 326 330 328 326 328 328 328 328 320 304 321 320 339 337 334
65 48 nan nan nan 69 32 55 87 71 132 311 nan nan nan nan 297 324 325 308 296 254 236 325 341 338 332 330 328 327 324 325 322 324 331 332 330 323 333 333 336 327 314 315 321 330 332 325 353
nan nan nan nan 78 28 347 68 59 57 220 295 nan nan nan nan 329 339 325 344 305 311 175 347 341 338 336 331 333 336 327 321 316 329 336 322 322 321 341 342 345 335 319 322 328 350 4 4 358
350 319 23 48 63 105 80 21 73 48 76 129 71 223 nan nan 352 337 320 320 336 342 338 37 358 359 353 350 338 328 318 305 308 317 313 313 326 326 332 350 341 344 329 325 334 347 2 15 30
nan nan 37 37 44 37 329 8 334 48 131 150 96 nan nan nan nan 311 304 304 342 357 6 22 13 2 316 301 320 334 329 291 288 290 299 302 305 291 284 319 354 350 345 334 329 346 2 6 37
359 nan nan 31 17 21 358 45 74 90 46 127 116 nan nan 333 326 304 303 305 332 359 28 28 11 341 304 300 335 337 329 327 310 279 274 260 236 258 248 nan 38 17 0 349 339 346 348 3 12
nan 15 nan 40 34 357 3 13 33 8 9 176 228 271 312 334 347 342 360 1 4 17 13 28 14 15 354 324 305 300 309 284 283 277 236 236 252 nan nan nan 66 32 14 355 356 358 354 351 295
nan nan 23 33 44 0 11 15 34 344 19 6 335 327 340 344 359 6 17 9 7 7 10 11 6 354 340 329 310 289 277 270 253 282 nan nan nan nan nan nan nan 74 355 300 320 359 319 307 296
nan 60 38 26 34 27 8 8 360 4 30 348 338 333 342 4 18 13 16 20 19 10 5 10 360 346 345 310 321 315 319 282 nan nan nan nan nan nan nan nan nan nan 225 268 287 326 355 345 255
nan 81 46 24 36 17 16 9 350 17 338 351 337 340 356 17 23 32 29 35 19 13 14 13 7 11 4 357 1 107 69 nan nan nan nan nan nan nan nan nan nan nan nan nan 266 325 19 7 249
nan 74 25 38 57 15 7 9 3 41 345 2 357 9 9 17 14 5 8 18 19 7 1 8 3 8 7 18 37 83 83 nan nan nan nan nan nan nan nan 134 25 nan nan nan nan 267 64 107 152
336 14 18 38 74 51 0 17 8 15 357 3 13 18 21 25 8 20 21 18 13 6 345 1 353 354 19 32 59 117 83 nan nan nan nan nan nan nan nan 208 224 277 250 nan 254 260 266 187 187
183 123 340 49 38 38 65 36 37 9 2 3 21 27 30 24 22 17 16 18 9 348 344 347 347 354 22 44 58 81 101 nan nan nan nan nan nan nan 5 323 303 281 196 212 250 260 267 298 186
128 57 86 17 39 40 66 37 35 20 3 16 21 34 33 32 40 30 19 7 355 335 332 340 343 356 16 47 59 75 87 nan nan nan 67 nan 6 348 313 337 360 324 229 228 246 255 267 262 209
nan 53 70 22 24 23 29 50 37 33 26 29 27 35 40 28 33 32 35 23 12 355 353 351 347 356 3 37 45 46 71 nan nan nan 32 28 6 342 281 281 303 295 297 253 258 268 248 241 208
nan nan nan 48 13 2 19 63 42 38 42 35 34 38 38 38 19 352 16 22 13 17 360 354 351 356 347 249 88 89 69 355 71 103 74 45 34 11 340 296 302 298 296 nan 285 284 317 nan 228
nan nan nan nan nan 327 351 61 40 34 33 31 29 35 32 32 22 5 353 11 14 3 10 4 12 351 21 44 196 67 39 96 86 74 75 57 41 21 359 328 300 291 292 309 311 308 324 342 270
nan nan nan nan 321 244 306 110 42 53 27 16 28 26 27 13 6 6 360 6 20 23 11 12 356 346 14 358 264 251 159 121 93 71 57 51 37 21 8 355 288 284 281 292 303 310 314 323 292
nan nan nan nan 283 331 294 327 15 347 16 11 10 353 351 359 355 0 354 335 0 23 9 17 26 355 5 348 355 353 10 80 79 81 52 44 39 37 21 4 239 314 287 289 299 291 293 294 304
nan nan nan nan nan nan 297 nan 326 312 17 5 4 7 346 340 341 346 356 349 358 350 351 341 9 25 357 8 24 10 8 38 57 59 59 70 43 39 31 nan nan 18 280 308 279 278 290 293 288
nan nan nan nan nan nan nan nan nan 340 12 355 349 356 355 331 324 334 306 308 318 310 334 306 293 79 18 9 12 14 25 31 61 71 54 54 44 40 37 nan nan nan 24 334 326 293 304 323 310
nan nan nan nan nan nan nan nan nan 284 288 341 1 286 297 317 326 322 316 281 291 309 325 301 281 281 29 1 3 355 2 319 55 59 40 9 22 11 34 19 18 nan nan 17 1 337 323 345 348
nan nan nan nan nan nan nan nan nan 275 290 309 322 350 334 322 330 308 293 215 258 289 299 295 298 305 29 2 8 306 300 277 341 32 310 347 349 359 356 1 359 5 nan 2 8 0 331 337 354
nan nan nan nan nan nan nan nan nan 285 282 311 326 337 352 352 334 324 nan 305 250 230 236 267 269 267 243 352 265 283 273 253 218 148 270 321 337 336 329 322 320 324 327 332 331 336 340 342 354
nan nan nan nan nan nan nan nan nan 297 306 331 335 353 352 322 315 320 nan nan 265 245 229 220 220 229 204 181 239 258 271 229 67 120 357 331 325 311 300 300 297 296 304 305 309 308 318 317 318
nan nan nan nan nan nan nan nan nan nan 307 318 335 327 324 344 341 318 290 272 261 222 231 243 235 226 210 192 193 225 231 317 341 314 309 314 304 299 298 288 287 286 277 288 291 289 289 292 293
nan nan nan nan nan nan nan nan 283 294 294 311 329 307 308 311 316 300 305 273 258 241 242 242 238 245 261 nan 185 243 160 312 292 298 302 298 292 291 290 284 278 nan nan 269 272 277 276 277 278